Location: ??????????
(42.1626°N, 44.1160°E)
Time: 11:16:25
(UTC+00:00)

Cosmos 1470 Rocket - Pass Details

Date: 03 March 2021
Orbit: 603 x 634 km, 82.5° (Epoch: 21 April)

Event Time Altitude Azimuth Distance (km) Brightness Sun altitude
Rises 15:19:33 0° 164° (SSE) 2,915 6.9 -5.2°
Reaches altitude 10° 15:21:55 10° 156° (SSE) 2,011 6.0 -5.6°
Maximum altitude 15:25:58 34° 91° (E) 1,035 4.2 -6.4°
Drops below altitude 10° 15:30:00 10° 26° (NNE) 2,016 5.9 -7.1°
Sets 15:32:23 0° 18° (NNE) 2,923 6.8 -7.5°
